Temp
74 77 79 80 79 79 79 79 79 79 79 79 79 79 79 79 79 79 79 79 79 80 80 80 79 79 80 80 79 79 79 79 80 80 80 79 79 79 79 79 79 77 78
77 77 80 79 79 80 79 79 79 79 79 79 79 79 79 79 79 79 79 79 79 80 80 80 79 79 80 80 79 79 79 79 79 80 80 80 79 79 79 79 78 77 78
77 77 79 79 79 79 79 79 78 78 78 78 78 79 79 79 79 78 78 78 79 80 80 80 80 80 80 80 80 79 79 78 78 79 79 74 74 79 79 79 78 78 78
77 77 78 79 79 79 79 78 78 78 78 78 78 79 78 78 78 78 78 79 79 80 80 80 80 80 80 80 79 79 79 79 79 80 74 75 77 80 79 79 79 78 77
76 77 77 79 79 79 79 78 78 78 78 78 78 78 78 78 78 78 78 78 79 80 80 80 80 79 79 79 78 78 78 78 79 77 73 72 71 79 79 79 79 78 78
77 77 78 78 78 78 79 78 78 78 78 78 78 78 78 78 77 77 78 78 79 80 80 80 79 78 78 78 78 78 78 78 78 73 73 74 73 78 79 79 79 78 78
76 76 78 78 78 78 79 78 78 78 78 78 78 78 78 77 77 77 77 78 79 79 79 79 78 77 77 78 78 77 77 78 74 72 72 73 73 77 79 79 79 78 78
75 76 79 79 78 78 78 78 78 77 77 77 77 77 77 77 77 77 77 78 78 78 78 78 77 77 77 77 77 77 77 78 74 71 71 71 74 77 79 78 78 78 78
77 77 79 78 78 78 78 77 77 77 77 76 76 76 76 77 76 76 77 77 77 77 77 77 77 77 76 76 76 76 76 78 71 68 72 70 76 77 79 78 78 78 78
74 77 79 78 77 75 76 77 77 77 77 76 76 76 76 76 76 76 75 76 77 77 77 76 76 76 76 76 76 76 76 77 69 69 68 68 75 78 79 79 78 78 78
74 74 78 78 76 75 75 77 77 78 77 76 76 76 75 73 73 74 74 76 77 77 76 76 76 76 76 76 76 76 78 68 69 69 69 74 76 78 79 79 78 78 77
72 71 76 78 75 74 78 76 75 75 75 74 74 74 72 71 70 73 74 76 76 76 76 76 76 76 76 68 67 73 67 68 68 69 69 75 76 79 80 79 78 78 77
73 73 73 76 77 73 76 76 77 76 76 75 73 72 70 70 70 70 68 70 69 74 69 72 71 69 68 67 67 66 68 68 67 69 72 76 76 78 79 79 78 78 77
72 75 73 74 76 72 74 78 78 77 76 75 74 71 69 68 67 67 66 66 67 67 67 67 67 67 67 68 68 68 68 68 68 69 69 75 76 77 79 79 78 78 78
72 74 74 73 74 73 74 77 77 77 75 75 73 71 70 67 67 66 65 65 66 66 66 66 67 67 67 68 69 69 69 69 70 69 68 75 76 76 78 79 79 79 78
72 73 75 74 73 73 74 75 76 76 74 72 72 72 70 68 65 65 66 66 66 67 67 68 68 67 67 68 69 69 69 69 70 70 70 69 74 75 76 78 79 79 79
72 73 73 74 73 73 74 72 72 73 73 72 72 72 72 69 67 67 66 66 68 67 68 68 68 68 67 68 68 69 69 69 69 70 72 69 70 75 75 76 77 78 78
70 71 72 76 73 74 75 74 74 73 73 73 73 73 73 72 71 68 69 70 69 69 69 68 68 68 67 67 67 67 68 69 69 70 71 71 70 71 73 75 76 77 77
70 70 71 72 73 73 74 75 76 73 71 73 73 73 73 74 72 71 71 71 69 68 69 69 68 68 68 67 68 68 68 67 68 72 71 72 70 71 69 73 74 75 76
68 68 69 73 72 71 70 70 70 69 69 70 72 75 74 74 73 72 71 70 69 68 69 68 68 67 68 68 70 70 68 70 69 68 72 72 69 69 68 69 69 72 74
64 65 66 67 68 71 69 68 68 68 68 69 69 72 73 74 73 72 74 71 70 71 70 70 69 68 67 67 67 67 69 70 69 70 69 67 68 70 69 68 67 69 70
63 63 64 66 67 68 69 68 67 67 67 69 69 71 73 74 72 71 71 70 70 69 69 69 68 66 66 67 67 63 63 67 69 67 66 68 68 68 69 70 70 70 68
61 61 62 63 64 64 66 66 65 65 66 65 66 66 68 71 73 71 71 70 71 70 70 68 68 67 67 66 67 66 60 60 59 65 67 67 67 68 68 69 69 71 70
62 61 61 62 62 62 63 65 65 64 63 64 65 66 66 69 69 72 72 71 70 69 70 69 70 69 67 67 65 67 67 64 61 62 62 65 66 67 67 68 70 70 71
60 59 59 60 60 60 60 61 61 62 63 63 64 65 64 66 68 68 72 74 73 70 70 69 67 67 67 67 66 64 65 65 62 62 64 62 61 64 68 68 68 70 70
59 59 58 59 59 59 59 59 60 60 59 60 61 62 63 64 65 67 68 68 73 75 76 77 72 68 66 65 66 66 68 65 62 63 61 63 60 63 65 68 69 68 68
MSLP
1007.33 1007.35 1007.63 1008.03 1008.07 1008.22 1008.48 1008.69 1009.08 1009.36 1009.54 1009.82 1010.26 1010.69 1011.02 1011.44 1011.91 1012.22 1012.37 1012.59 1012.92 1013.12 1013.25 1013.46 1013.65 1013.83 1013.98 1014.13 1014.28 1014.45 1014.49 1014.61 1014.75 1014.73 1014.84 1014.85 1014.91 1014.89 1014.80 1014.93 1015.05 1015.13 1015.22
1006.46 1007.14 1007.51 1008.06 1008.37 1008.36 1008.52 1008.77 1009.19 1009.64 1009.91 1010.20 1010.61 1011.04 1011.41 1011.79 1012.09 1012.29 1012.50 1012.73 1013.03 1013.29 1013.47 1013.50 1013.69 1013.88 1014.04 1014.23 1014.42 1014.59 1014.77 1014.81 1014.92 1015.00 1015.05 1015.11 1015.16 1015.16 1015.13 1015.08 1015.14 1015.41 1015.48
1006.41 1007.19 1007.54 1007.95 1008.44 1008.60 1008.68 1008.92 1009.32 1009.81 1010.17 1010.47 1010.78 1011.10 1011.52 1011.94 1012.24 1012.37 1012.63 1012.92 1013.18 1013.32 1013.49 1013.70 1013.84 1013.99 1014.14 1014.37 1014.58 1014.76 1014.91 1014.96 1015.07 1015.12 1015.35 1015.47 1015.34 1015.34 1015.35 1015.19 1015.23 1015.37 1015.36
1006.52 1006.92 1007.36 1007.89 1008.46 1008.65 1009.07 1009.37 1009.64 1010.01 1010.50 1010.73 1010.98 1011.32 1011.58 1011.86 1012.19 1012.48 1012.86 1013.03 1013.22 1013.45 1013.62 1013.73 1013.92 1014.09 1014.33 1014.51 1014.78 1014.99 1015.14 1015.11 1015.23 1015.30 1015.51 1015.47 1015.39 1015.28 1015.23 1015.32 1015.26 1015.42 1015.62
1006.69 1006.94 1007.23 1007.69 1008.37 1008.86 1009.21 1009.71 1010.05 1010.32 1010.72 1011.01 1011.30 1011.54 1011.77 1012.01 1012.23 1012.62 1012.96 1013.23 1013.37 1013.51 1013.66 1013.80 1014.08 1014.26 1014.47 1014.65 1014.77 1015.02 1015.08 1015.20 1015.24 1015.32 1015.36 1015.42 1015.36 1015.27 1015.25 1015.30 1015.35 1015.45 1015.57
1007.25 1007.20 1007.20 1007.59 1008.17 1008.76 1009.28 1009.71 1010.18 1010.49 1010.99 1011.34 1011.50 1011.78 1012.13 1012.28 1012.48 1012.85 1013.21 1013.42 1013.52 1013.59 1013.81 1013.98 1014.15 1014.35 1014.40 1014.49 1014.71 1014.99 1015.21 1015.22 1015.23 1015.29 1015.15 1015.01 1014.88 1015.04 1015.30 1015.35 1015.29 1015.35 1015.39
1007.19 1007.53 1007.58 1007.84 1008.21 1008.89 1009.31 1009.85 1010.07 1010.45 1010.90 1011.36 1011.68 1012.04 1012.21 1012.63 1012.88 1013.08 1013.33 1013.53 1013.69 1013.90 1014.15 1014.39 1014.44 1014.51 1014.50 1014.45 1014.52 1014.70 1014.92 1015.08 1015.21 1015.31 1015.15 1015.02 1014.86 1014.98 1015.24 1015.37 1015.23 1015.44 1015.48
1007.21 1007.54 1008.00 1008.18 1008.31 1008.64 1009.22 1009.74 1010.28 1010.35 1010.66 1011.31 1011.69 1011.91 1012.30 1012.58 1013.00 1013.35 1013.48 1013.60 1013.67 1013.87 1014.14 1014.41 1014.57 1014.53 1014.63 1014.53 1014.47 1014.71 1014.82 1014.90 1015.15 1015.28 1015.12 1015.02 1014.97 1014.94 1015.03 1015.20 1015.25 1015.31 1015.49
1007.74 1007.88 1008.05 1008.55 1008.75 1008.96 1009.16 1009.57 1010.19 1010.58 1010.68 1010.93 1011.52 1011.85 1012.14 1012.39 1012.70 1013.05 1013.40 1013.65 1013.79 1013.85 1014.06 1014.44 1014.59 1014.75 1014.56 1014.62 1014.61 1014.57 1014.61 1014.70 1014.88 1015.04 1015.05 1014.99 1014.91 1014.94 1014.90 1014.95 1015.09 1015.31 1015.44
1007.56 1008.00 1008.37 1008.56 1008.96 1009.14 1009.49 1009.78 1010.07 1010.60 1010.94 1011.04 1011.36 1011.70 1012.02 1012.33 1012.58 1012.72 1013.00 1013.33 1013.53 1013.71 1013.89 1014.14 1014.32 1014.50 1014.58 1014.54 1014.54 1014.40 1014.57 1014.68 1014.72 1014.84 1014.87 1014.87 1014.89 1014.83 1014.71 1014.75 1014.91 1015.16 1015.39
1007.97 1008.29 1008.39 1008.65 1009.02 1009.25 1009.43 1009.94 1010.04 1010.55 1010.89 1011.25 1011.37 1011.56 1011.80 1012.18 1012.40 1012.65 1012.77 1012.90 1013.19 1013.35 1013.53 1013.80 1014.03 1014.27 1014.46 1014.58 1014.45 1014.30 1014.25 1014.48 1014.57 1014.64 1014.66 1014.44 1014.59 1014.58 1014.48 1014.49 1014.70 1014.88 1015.25
1007.56 1008.13 1008.46 1008.65 1009.03 1009.34 1009.63 1009.88 1010.06 1010.36 1010.87 1011.09 1011.48 1011.56 1011.80 1011.94 1012.32 1012.46 1012.55 1012.65 1012.78 1012.97 1013.32 1013.54 1013.79 1014.01 1014.30 1014.55 1014.51 1014.31 1014.40 1014.42 1014.47 1014.46 1014.28 1014.08 1014.11 1014.10 1013.95 1014.07 1014.34 1014.43 1014.68
1006.79 1007.67 1008.24 1008.71 1008.95 1009.27 1009.58 1009.97 1010.21 1010.19 1010.76 1011.11 1011.30 1011.49 1011.70 1011.93 1012.18 1012.35 1012.58 1012.57 1012.78 1012.93 1013.21 1013.52 1013.75 1013.96 1014.17 1014.35 1014.34 1014.38 1014.42 1014.36 1014.28 1014.19 1014.02 1013.62 1013.43 1013.46 1013.41 1013.50 1013.79 1013.76 1014.04
1006.44 1006.76 1007.47 1008.20 1008.75 1009.13 1009.26 1009.66 1010.16 1010.12 1010.21 1010.73 1011.03 1011.38 1011.61 1011.82 1012.07 1012.31 1012.55 1012.68 1012.75 1012.94 1013.22 1013.58 1013.83 1013.99 1014.19 1014.17 1014.17 1014.10 1014.18 1014.11 1013.96 1013.83 1013.66 1013.42 1013.24 1013.21 1012.99 1013.13 1013.41 1013.56 1013.65
1006.22 1006.45 1007.03 1007.67 1008.13 1008.85 1009.17 1009.43 1009.83 1010.18 1010.20 1010.28 1010.77 1011.04 1011.33 1011.65 1011.83 1012.00 1012.19 1012.48 1012.70 1012.94 1013.17 1013.55 1013.74 1013.90 1013.91 1013.95 1013.87 1013.91 1013.79 1013.75 1013.46 1013.48 1013.38 1012.96 1012.85 1012.79 1012.76 1012.72 1012.90 1013.25 1013.44
1005.70 1005.85 1006.23 1006.79 1007.26 1007.91 1008.62 1008.81 1009.29 1009.57 1009.93 1010.07 1010.25 1010.57 1010.77 1011.13 1011.58 1011.83 1012.09 1012.36 1012.50 1012.63 1012.84 1013.12 1013.44 1013.74 1013.79 1013.76 1013.78 1013.58 1013.35 1013.32 1013.11 1013.05 1013.00 1012.72 1012.45 1012.32 1012.42 1012.29 1012.43 1012.66 1013.15
1005.07 1005.54 1005.69 1006.21 1006.78 1007.06 1007.38 1008.12 1008.61 1009.08 1009.36 1009.84 1009.82 1010.14 1010.45 1010.74 1011.06 1011.46 1011.74 1011.94 1011.98 1012.17 1012.57 1012.85 1013.02 1013.29 1013.52 1013.43 1013.47 1013.35 1013.24 1013.00 1012.99 1012.79 1012.52 1012.46 1012.17 1011.76 1011.87 1011.87 1011.78 1011.68 1012.22
1004.50 1005.08 1005.26 1005.62 1006.48 1006.67 1007.11 1006.82 1007.45 1008.18 1008.90 1009.00 1009.20 1009.54 1009.65 1010.17 1010.43 1011.02 1011.23 1011.32 1011.38 1011.55 1012.13 1012.69 1012.80 1013.13 1013.12 1013.15 1013.18 1013.11 1012.99 1012.73 1012.66 1012.52 1012.18 1011.84 1011.83 1011.79 1011.57 1011.21 1011.30 1011.21 1011.51
1004.29 1004.41 1004.88 1005.40 1005.60 1006.26 1006.53 1007.33 1007.49 1007.99 1008.98 1009.50 1009.51 1009.30 1009.32 1009.56 1009.97 1010.28 1010.55 1011.24 1011.28 1011.55 1011.62 1012.14 1012.50 1012.87 1012.90 1012.80 1012.87 1012.93 1012.69 1012.52 1012.14 1012.01 1011.75 1011.30 1011.18 1011.22 1011.33 1011.25 1011.10 1010.74 1010.85
1004.42 1004.61 1004.53 1004.77 1005.07 1005.85 1006.31 1007.01 1007.43 1007.59 1008.24 1009.37 1009.51 1009.69 1009.68 1009.15 1009.26 1009.84 1010.31 1010.37 1011.15 1011.46 1011.61 1011.80 1012.09 1012.36 1012.70 1012.49 1012.52 1012.49 1012.34 1011.87 1011.44 1011.35 1011.08 1011.06 1011.14 1010.95 1010.75 1010.74 1010.97 1010.84 1010.59
1004.76 1004.58 1004.73 1004.87 1004.94 1005.56 1006.17 1006.79 1007.50 1007.79 1008.25 1009.29 1009.13 1008.71 1009.43 1009.85 1008.92 1008.95 1009.85 1010.28 1010.75 1010.96 1011.43 1011.79 1011.80 1011.97 1012.45 1012.42 1012.27 1012.02 1011.61 1011.19 1011.06 1010.74 1010.54 1010.76 1010.74 1010.53 1010.47 1010.50 1010.59 1010.75 1010.55
1004.25 1004.68 1004.66 1004.77 1005.12 1005.31 1005.45 1006.06 1006.62 1007.39 1008.15 1008.75 1009.00 1008.80 1009.02 1009.14 1008.33 1009.01 1008.32 1010.03 1010.88 1010.95 1011.08 1011.68 1011.66 1012.08 1012.08 1012.25 1012.26 1012.37 1012.18 1011.47 1011.02 1010.72 1010.53 1010.47 1010.55 1010.58 1010.35 1009.81 1009.84 1009.92 1010.15
1004.49 1004.43 1004.61 1004.87 1005.28 1005.33 1005.42 1005.77 1006.43 1006.83 1007.72 1008.42 1008.49 1008.73 1008.62 1008.51 1007.90 1008.42 1008.26 1009.13 1010.55 1010.73 1010.79 1011.11 1011.13 1011.61 1011.73 1012.15 1012.03 1012.25 1012.45 1012.49 1012.14 1010.91 1010.29 1010.39 1010.58 1010.34 1010.11 1010.01 1009.66 1009.57 1009.48
1004.18 1004.36 1004.57 1004.77 1005.07 1005.36 1005.53 1005.95 1006.31 1006.80 1007.41 1007.59 1007.72 1007.80 1008.09 1008.21 1008.11 1008.49 1007.60 1008.73 1010.40 1010.87 1010.10 1010.86 1010.84 1011.13 1011.43 1011.74 1012.01 1011.76 1011.65 1011.82 1012.13 1011.45 1010.66 1010.33 1010.39 1010.41 1010.17 1009.94 1009.82 1009.59 1009.23
1003.87 1004.11 1004.46 1004.79 1004.98 1005.14 1005.38 1005.78 1006.32 1006.80 1006.91 1007.11 1007.51 1007.65 1007.72 1007.66 1007.81 1008.68 1008.56 1007.71 1008.31 1009.70 1010.84 1009.78 1011.48 1011.31 1011.03 1010.88 1011.51 1011.56 1011.59 1011.35 1011.95 1012.71 1011.04 1010.57 1010.44 1010.19 1009.84 1009.46 1009.43 1009.35 1008.86
1003.78 1004.07 1004.38 1004.75 1005.00 1005.22 1005.48 1005.94 1006.24 1006.63 1006.98 1007.37 1007.53 1007.65 1007.67 1007.83 1007.68 1007.96 1008.32 1008.83 1008.98 1008.81 1009.16 1009.00 1010.17 1011.09 1010.46 1010.36 1010.43 1010.44 1010.79 1011.05 1011.42 1011.51 1011.90 1010.65 1010.39 1009.45 1009.41 1009.00 1008.74 1008.21 1008.33
Wind_Speed
7 10 15 13 15 18 20 21 19 18 17 18 20 20 20 20 18 17 17 16 15 15 14 12 11 10 10 10 10 9 9 9 9 10 9 8 8 8 10 11 9 6 8
15 13 18 16 14 17 20 21 21 20 19 19 19 19 19 18 18 17 16 16 14 14 13 12 11 10 9 9 10 9 8 8 7 8 7 7 6 6 9 9 10 6 8
17 13 16 17 15 15 18 20 21 21 21 20 20 20 19 18 17 17 15 15 14 14 13 12 11 9 8 8 8 7 7 7 6 5 4 2 2 4 6 8 9 8 8
16 14 14 18 15 16 16 17 19 20 20 20 20 19 19 18 17 16 14 14 14 13 12 11 9 8 7 7 7 7 6 6 4 3 2 2 3 3 5 7 8 7 7
13 14 15 19 17 16 17 16 16 18 18 18 18 17 17 16 15 14 13 12 13 12 11 10 8 8 7 7 7 6 6 5 4 4 1 3 4 5 6 7 8 7 7
11 12 18 20 19 17 17 17 16 17 16 15 15 15 14 14 13 12 12 11 11 11 10 9 8 7 7 6 6 5 4 3 4 1 2 5 4 6 8 8 8 7 7
13 9 13 19 19 18 18 18 18 18 17 15 15 14 14 12 11 11 10 10 9 8 7 6 5 5 4 4 4 4 4 4 2 2 4 5 4 7 8 7 7 8 9
13 11 14 17 19 20 19 18 16 18 18 16 15 15 13 12 10 9 9 9 8 8 6 6 4 3 1 1 2 3 4 5 4 4 5 4 3 7 10 8 8 9 9
9 12 14 12 14 18 18 18 17 16 18 18 16 15 14 14 12 11 10 8 8 7 7 5 4 3 3 2 3 3 3 5 3 2 4 3 5 8 12 11 10 9 9
9 11 14 14 10 11 12 18 18 16 17 18 17 15 14 14 13 13 11 10 9 8 8 7 6 5 5 4 4 5 6 7 4 4 3 3 9 9 13 12 11 9 9
7 8 13 14 11 10 10 12 16 18 16 16 16 17 14 7 8 9 10 12 11 10 9 8 7 7 6 6 6 7 8 2 4 3 3 8 9 9 11 13 11 10 8
13 10 13 14 10 7 8 10 10 9 7 7 8 10 6 7 6 8 10 12 12 11 10 9 9 7 6 3 3 6 2 4 3 4 3 9 9 10 10 13 12 12 11
14 11 11 13 13 7 7 7 6 6 6 5 7 7 5 5 5 4 3 4 4 8 3 5 4 3 4 3 4 3 4 4 3 3 6 12 12 13 10 12 14 14 14
16 17 16 14 15 8 5 8 10 8 8 7 8 6 5 4 4 4 3 4 4 3 4 4 2 3 4 5 5 5 5 4 3 3 6 14 13 13 11 13 14 13 13
14 14 16 15 14 11 10 10 9 10 9 11 8 7 5 5 6 4 4 4 4 3 3 4 4 3 5 5 5 5 6 6 6 3 4 13 14 11 12 14 12 12 12
9 13 17 18 16 15 13 15 12 10 10 8 8 9 9 6 4 4 4 4 4 4 4 4 4 4 4 4 5 6 7 7 6 6 5 6 12 12 13 13 13 12 13
9 12 16 16 16 18 19 13 10 9 9 9 8 9 10 8 7 6 5 5 5 4 5 4 4 3 4 3 6 4 5 7 5 7 7 5 6 12 14 14 15 14 15
8 14 12 13 16 15 14 15 12 11 9 9 9 9 13 12 10 6 6 7 5 5 4 4 4 4 4 4 3 4 4 4 6 7 6 7 4 4 10 17 17 15 15
10 11 13 12 16 15 11 9 8 7 2 4 5 7 11 11 11 8 7 4 4 4 5 4 4 3 3 3 3 4 4 5 6 5 8 9 6 6 6 10 16 15 15
7 5 8 10 13 10 4 4 4 5 5 3 4 5 8 10 11 9 5 5 5 4 4 3 5 3 3 2 3 3 5 6 5 5 9 5 5 7 7 7 4 7 15
4 8 8 8 7 10 5 5 4 7 8 9 9 8 6 7 9 10 6 4 5 6 5 4 2 4 2 3 0 3 3 5 6 6 4 3 7 6 6 5 4 5 5
8 6 6 8 7 5 5 4 4 4 5 6 5 10 15 13 8 8 9 4 5 4 3 5 3 1 2 4 2 2 5 4 4 5 2 4 6 4 6 6 7 8 6
9 9 9 8 8 6 5 4 3 2 2 4 4 4 5 6 7 7 5 5 5 4 6 5 4 6 4 3 4 4 1 4 3 3 2 3 6 4 4 6 6 8 7
10 8 8 8 8 7 7 5 5 4 4 3 4 4 4 6 4 5 12 10 6 5 3 4 3 5 3 5 1 4 3 4 1 8 3 3 4 5 6 4 5 7 7
8 9 7 7 7 7 6 5 4 3 3 2 1 3 3 4 5 6 8 7 10 6 7 2 5 6 5 4 4 2 4 3 3 6 14 4 2 4 5 4 5 6 6
7 8 8 8 7 7 8 8 9 8 5 3 3 3 2 3 3 5 4 5 9 13 17 17 11 11 8 6 4 4 5 3 4 4 6 6 5 4 4 4 6 5 5
Wind_Direction
178 159 154 151 138 131 128 125 122 118 114 112 114 117 120 123 128 129 125 124 127 127 125 122 119 119 119 113 109 110 114 112 109 107 98 94 89 70 126 115 108 104 104
147 157 155 153 149 138 133 129 128 127 125 123 122 122 122 126 130 130 130 131 130 130 132 135 133 132 125 122 119 116 108 100 93 86 92 94 92 96 119 112 113 111 102
145 153 155 154 154 143 136 134 134 134 134 133 133 132 133 135 135 132 133 131 136 141 144 144 142 138 131 120 115 115 110 91 84 86 90 70 110 121 120 121 115 119 117
146 154 155 155 154 146 139 137 137 136 137 138 138 138 139 139 137 134 135 140 146 148 149 145 141 135 128 118 108 94 88 92 89 76 31 314 296 154 154 136 129 133 122
154 157 157 155 152 149 142 140 136 134 139 138 138 139 139 138 136 138 144 147 152 154 154 149 146 138 126 111 101 94 91 78 62 53 0 274 257 229 192 163 147 150 146
158 161 160 156 151 151 150 146 142 139 139 140 138 138 139 139 138 144 149 154 160 159 158 154 150 143 137 124 104 87 64 53 83 27 330 309 174 194 207 188 165 163 162
159 166 161 157 152 153 154 153 150 145 143 143 143 145 142 140 143 148 154 159 160 154 152 157 148 146 142 121 98 76 46 6 36 7 349 347 182 184 206 211 176 175 170
156 157 168 165 159 157 157 156 157 150 146 149 152 149 146 146 151 156 160 163 161 152 156 162 167 168 160 129 75 32 13 347 4 355 339 331 249 209 211 211 193 188 189
153 161 169 170 166 159 158 158 159 158 153 153 156 155 155 156 160 165 169 170 166 160 160 170 186 205 211 263 303 322 326 323 329 308 304 314 295 244 222 212 207 202 199
145 166 173 171 168 160 161 162 160 163 163 159 159 161 162 166 169 173 176 177 177 177 175 186 200 217 238 241 267 284 302 309 300 286 256 275 286 282 232 221 212 208 210
142 168 175 174 170 166 158 171 165 169 170 169 167 168 166 170 175 186 183 186 186 188 185 196 208 221 240 265 267 275 285 273 291 284 283 287 285 280 247 227 215 215 222
165 166 178 177 164 171 167 173 169 171 173 172 178 176 175 169 180 188 194 196 194 196 196 204 213 220 241 249 276 287 303 291 300 296 277 288 276 276 259 227 213 214 217
166 165 171 176 172 164 173 174 182 174 178 188 186 180 175 173 189 196 200 199 196 209 195 211 225 211 224 243 263 276 276 273 255 267 285 289 284 292 276 217 215 213 220
173 174 167 172 176 175 163 177 194 188 182 191 193 187 177 181 186 199 198 209 201 196 199 203 217 230 242 250 254 269 268 262 255 250 264 280 277 278 247 216 219 226 227
175 172 175 169 173 176 169 182 192 201 195 192 193 189 183 193 195 181 202 194 204 191 198 215 211 224 239 245 246 247 260 261 253 246 250 268 270 268 232 224 224 232 237
174 178 175 178 176 172 182 184 193 197 202 193 189 197 193 191 191 184 190 204 212 200 195 203 208 216 233 225 247 241 246 257 259 261 255 253 252 247 234 227 228 229 241
189 173 179 181 181 179 181 182 187 197 194 197 201 194 199 196 188 190 196 206 207 199 213 201 217 216 245 230 249 252 234 250 255 260 268 246 245 238 231 230 228 220 230
163 179 176 177 189 189 198 185 186 190 195 200 200 199 197 199 195 200 201 215 196 184 190 204 216 233 224 232 252 265 281 283 284 275 274 266 250 253 239 230 229 222 223
193 167 171 179 183 193 190 200 199 150 182 245 245 211 206 201 199 191 199 229 205 206 188 194 215 211 239 244 248 246 262 264 251 262 261 266 242 241 240 248 235 223 221
174 169 163 180 180 176 151 138 139 138 153 233 213 252 244 208 191 195 202 186 201 207 216 183 200 210 245 186 266 266 245 251 250 246 266 285 271 250 242 232 230 244 226
175 157 160 151 157 163 154 145 152 176 179 210 222 199 239 234 200 180 211 209 199 207 220 211 185 190 222 194 8 308 286 274 275 246 250 263 269 261 251 241 219 245 242
171 179 157 146 157 166 148 144 151 157 192 199 208 209 211 212 188 209 162 191 218 195 190 206 179 202 201 204 185 103 324 331 312 293 296 269 275 285 267 232 225 225 233
178 179 170 161 147 144 133 103 82 62 124 169 193 212 224 234 179 174 165 141 236 210 200 206 184 189 199 236 220 159 340 244 324 302 290 275 293 286 284 274 245 241 225
191 174 160 158 152 144 148 142 161 159 172 223 158 185 245 252 295 233 168 163 189 240 278 214 210 216 161 230 215 229 216 155 245 318 306 283 280 278 285 276 258 252 240
165 168 163 151 149 143 130 133 131 144 182 193 219 249 193 189 196 268 293 225 187 175 254 170 244 239 198 176 192 179 225 206 170 222 291 285 311 254 258 248 250 251 241
159 158 156 159 161 159 154 157 155 162 177 170 192 231 208 204 173 200 241 293 261 232 230 233 235 220 207 204 190 195 209 192 215 197 250 287 270 278 262 276 264 246 243